owner,sensor,date,latitude,longitude,vertical_datum,sea_water_temperature,qcFlag
BP,ioos:station:wmo:42374:1,2020-02-03T16:34:00Z,28.8662,-88.0563,1.8,20.3,11111222
BP,ioos:station:wmo:42374:1,2020-02-03T16:54:00Z,28.8662,-88.0563,2.0,20.3,11111222
BP,ioos:station:wmo:42374:1,2020-02-03T17:14:00Z,28.8662,-88.0563,2.2,20.3,11111222
BP,ioos:station:wmo:42374:1,2020-02-03T17:34:00Z,28.8662,-88.0563,1.8,20.3,11111222
BP,ioos:station:wmo:42374:1,2020-02-03T17:54:00Z,28.8662,-88.0563,1.9,20.3,11111222
BP,ioos:station:wmo:42374:1,2020-02-03T18:14:00Z,28.8662,-88.0563,1.9,20.3,11111222
BP,ioos:station:wmo:42374:1,2020-02-03T18:34:00Z,28.8662,-88.0563,1.8,20.3,11111222
BP,ioos:station:wmo:42374:1,2020-02-03T18:54:00Z,28.8662,-88.0563,1.9,20.3,11111222
BP,ioos:station:wmo:42374:1,2020-02-03T19:14:00Z,28.8662,-88.0563,1.9,20.3,11111222
BP,ioos:station:wmo:42374:1,2020-02-03T19:34:00Z,28.8662,-88.0563,1.9,20.3,11111222
BP,ioos:station:wmo:42374:1,2020-02-03T19:54:00Z,28.8662,-88.0563,1.7,20.3,11111222
BP,ioos:station:wmo:42374:1,2020-02-03T20:14:00Z,28.8662,-88.0563,1.8,20.3,11111222
BP,ioos:station:wmo:42374:1,2020-02-03T20:34:00Z,28.8662,-88.0563,1.9,20.3,11111222
BP,ioos:station:wmo:42374:1,2020-02-03T20:54:00Z,28.8662,-88.0563,1.8,20.3,11111222
BP,ioos:station:wmo:42374:1,2020-02-03T21:14:00Z,28.8662,-88.0563,1.8,20.3,11111222
BP,ioos:station:wmo:42374:1,2020-02-03T21:34:00Z,28.8662,-88.0563,1.8,20.3,11111222
BP,ioos:station:wmo:42374:1,2020-02-03T21:54:00Z,28.8662,-88.0563,2.0,20.3,11111222
BP,ioos:station:wmo:42374:1,2020-02-03T22:14:00Z,28.8662,-88.0563,1.9,20.2,11111222
BP,ioos:station:wmo:42374:1,2020-02-03T22:34:00Z,28.8662,-88.0563,1.8,20.2,11111222
BP,ioos:station:wmo:42374:1,2020-02-03T22:54:00Z,28.8662,-88.0563,1.9,20.2,11111222
BP,ioos:station:wmo:42374:1,2020-02-03T23:14:00Z,28.8662,-88.0563,1.9,20.2,11111222
BP,ioos:station:wmo:42374:1,2020-02-03T23:34:00Z,28.8662,-88.0563,2.0,20.2,11111222
BP,ioos:station:wmo:42374:1,2020-02-03T23:54:00Z,28.8662,-88.0563,1.8,20.2,11111222
BP,ioos:station:wmo:42374:1,2020-02-04T00:14:00Z,28.8662,-88.0563,1.8,20.3,11111222
BP,ioos:station:wmo:42374:1,2020-02-04T00:34:00Z,28.8662,-88.0563,1.9,20.3,11111222
BP,ioos:station:wmo:42374:1,2020-02-04T00:54:00Z,28.8662,-88.0563,1.8,20.3,11111222
BP,ioos:station:wmo:42374:1,2020-02-04T01:14:00Z,28.8662,-88.0563,1.6,20.3,11111222
BP,ioos:station:wmo:42374:1,2020-02-04T01:34:00Z,28.8662,-88.0563,1.9,20.3,11111222
BP,ioos:station:wmo:42374:1,2020-02-04T01:54:00Z,28.8662,-88.0563,1.7,20.3,11111222
BP,ioos:station:wmo:42374:1,2020-02-04T02:14:00Z,28.8662,-88.0563,1.7,20.3,11111222
BP,ioos:station:wmo:42374:1,2020-02-04T02:34:00Z,28.8662,-88.0563,1.9,20.3,11111222
BP,ioos:station:wmo:42374:1,2020-02-04T02:54:00Z,28.8662,-88.0563,1.7,20.3,11111222
BP,ioos:station:wmo:42374:1,2020-02-04T03:14:00Z,28.8662,-88.0563,1.8,20.3,11111222
BP,ioos:station:wmo:42374:1,2020-02-04T03:34:00Z,28.8662,-88.0563,1.7,20.3,11111222
BP,ioos:station:wmo:42374:1,2020-02-04T03:54:00Z,28.8662,-88.0563,1.7,20.3,11111222
BP,ioos:station:wmo:42374:1,2020-02-04T04:14:00Z,28.8662,-88.0563,1.6,20.3,11111222
BP,ioos:station:wmo:42374:1,2020-02-04T04:34:00Z,28.8662,-88.0563,1.7,20.3,11111222
BP,ioos:station:wmo:42374:1,2020-02-04T04:54:00Z,28.8662,-88.0563,1.7,20.3,11111222
BP,ioos:station:wmo:42374:1,2020-02-04T05:14:00Z,28.8662,-88.0563,1.7,20.3,11111222
BP,ioos:station:wmo:42374:1,2020-02-04T05:34:00Z,28.8662,-88.0563,1.6,20.3,11111222
BP,ioos:station:wmo:42374:1,2020-02-04T05:54:00Z,28.8662,-88.0563,1.9,20.3,11111222
BP,ioos:station:wmo:42374:1,2020-02-04T06:14:00Z,28.8662,-88.0563,1.8,20.3,11111222
BP,ioos:station:wmo:42374:1,2020-02-04T06:34:00Z,28.8662,-88.0563,1.7,20.3,11111222
BP,ioos:station:wmo:42374:1,2020-02-04T06:54:00Z,28.8662,-88.0563,1.8,20.3,11111222
BP,ioos:station:wmo:42374:1,2020-02-04T07:14:00Z,28.8662,-88.0563,1.7,20.4,11111222
BP,ioos:station:wmo:42374:1,2020-02-04T07:34:00Z,28.8662,-88.0563,1.8,20.4,11111222
BP,ioos:station:wmo:42374:1,2020-02-04T07:54:00Z,28.8662,-88.0563,1.7,20.5,11111222
BP,ioos:station:wmo:42374:1,2020-02-04T08:14:00Z,28.8662,-88.0563,2.0,20.6,11111222
BP,ioos:station:wmo:42374:1,2020-02-04T08:34:00Z,28.8662,-88.0563,1.8,20.6,11111222
BP,ioos:station:wmo:42374:1,2020-02-04T08:54:00Z,28.8662,-88.0563,1.7,20.6,11111222
BP,ioos:station:wmo:42374:1,2020-02-04T09:14:00Z,28.8662,-88.0563,1.5,20.7,11111222
BP,ioos:station:wmo:42374:1,2020-02-04T09:34:00Z,28.8662,-88.0563,1.4,20.7,11111222
BP,ioos:station:wmo:42374:1,2020-02-04T09:54:00Z,28.8662,-88.0563,1.5,20.7,11111222
BP,ioos:station:wmo:42374:1,2020-02-04T10:14:00Z,28.8662,-88.0563,1.4,20.7,11111222
BP,ioos:station:wmo:42374:1,2020-02-04T10:34:00Z,28.8662,-88.0563,1.5,20.7,11111222
BP,ioos:station:wmo:42374:1,2020-02-04T10:54:00Z,28.8662,-88.0563,1.4,20.8,11111222
BP,ioos:station:wmo:42374:1,2020-02-04T11:14:00Z,28.8662,-88.0563,1.6,20.8,11111222
BP,ioos:station:wmo:42374:1,2020-02-04T11:34:00Z,28.8662,-88.0563,1.6,20.7,11111222
BP,ioos:station:wmo:42374:1,2020-02-04T11:54:00Z,28.8662,-88.0563,1.5,20.8,11111222
BP,ioos:station:wmo:42374:1,2020-02-04T12:14:00Z,28.8662,-88.0563,1.7,20.7,11111222
BP,ioos:station:wmo:42374:1,2020-02-04T12:34:00Z,28.8662,-88.0563,1.5,20.8,11111222
BP,ioos:station:wmo:42374:1,2020-02-04T12:54:00Z,28.8662,-88.0563,1.5,20.8,11111222
BP,ioos:station:wmo:42374:1,2020-02-04T13:14:00Z,28.8662,-88.0563,1.4,20.8,11111222
BP,ioos:station:wmo:42374:1,2020-02-04T13:34:00Z,28.8662,-88.0563,1.7,20.8,11111222
BP,ioos:station:wmo:42374:1,2020-02-04T13:54:00Z,28.8662,-88.0563,1.6,20.8,11111222
BP,ioos:station:wmo:42374:1,2020-02-04T14:14:00Z,28.8662,-88.0563,1.6,20.8,11111222
BP,ioos:station:wmo:42374:1,2020-02-04T14:34:00Z,28.8662,-88.0563,1.4,20.8,11111222
BP,ioos:station:wmo:42374:1,2020-02-04T14:54:00Z,28.8662,-88.0563,1.6,20.8,11111222
BP,ioos:station:wmo:42374:1,2020-02-04T15:14:00Z,28.8662,-88.0563,1.7,20.8,11111222
BP,ioos:station:wmo:42374:1,2020-02-04T15:34:00Z,28.8662,-88.0563,1.6,20.8,11111222
BP,ioos:station:wmo:42374:1,2020-02-04T15:54:00Z,28.8662,-88.0563,1.8,20.8,11111222
BP,ioos:station:wmo:42374:1,2020-02-04T16:14:00Z,28.8662,-88.0563,1.8,20.9,11111222
BP,ioos:station:wmo:42374:1,2020-02-04T16:34:00Z,28.8662,-88.0563,1.6,20.9,11111222
BP,ioos:station:wmo:42374:1,2020-02-04T16:54:00Z,28.8662,-88.0563,1.5,20.9,11111222
BP,ioos:station:wmo:42374:1,2020-02-04T17:14:00Z,28.8662,-88.0563,1.8,20.9,11111222
BP,ioos:station:wmo:42374:1,2020-02-04T17:34:00Z,28.8662,-88.0563,1.7,20.9,11111222
BP,ioos:station:wmo:42374:1,2020-02-04T17:54:00Z,28.8662,-88.0563,1.7,20.9,11111222
BP,ioos:station:wmo:42374:1,2020-02-04T18:14:00Z,28.8662,-88.0563,1.8,20.9,11111222
BP,ioos:station:wmo:42374:1,2020-02-04T18:34:00Z,28.8662,-88.0563,1.5,20.9,11111222
BP,ioos:station:wmo:42374:1,2020-02-04T18:54:00Z,28.8662,-88.0563,1.7,20.9,11111222
BP,ioos:station:wmo:42374:1,2020-02-04T19:14:00Z,28.8662,-88.0563,1.8,20.9,11111222
BP,ioos:station:wmo:42374:1,2020-02-04T19:34:00Z,28.8662,-88.0563,1.7,20.9,11111222
BP,ioos:station:wmo:42374:1,2020-02-04T19:54:00Z,28.8662,-88.0563,1.8,20.9,11111222
BP,ioos:station:wmo:42374:1,2020-02-04T20:14:00Z,28.8662,-88.0563,1.7,20.9,11111222
BP,ioos:station:wmo:42374:1,2020-02-04T20:34:00Z,28.8662,-88.0563,1.6,20.9,11111222
BP,ioos:station:wmo:42374:1,2020-02-04T20:54:00Z,28.8662,-88.0563,1.6,20.9,11111222
BP,ioos:station:wmo:42374:1,2020-02-04T21:14:00Z,28.8662,-88.0563,1.7,20.9,11111222
BP,ioos:station:wmo:42374:1,2020-02-04T21:34:00Z,28.8662,-88.0563,1.5,20.9,11111222
BP,ioos:station:wmo:42374:1,2020-02-04T21:54:00Z,28.8662,-88.0563,1.7,20.9,11111222
BP,ioos:station:wmo:42374:1,2020-02-04T22:14:00Z,28.8662,-88.0563,1.8,20.9,11111222
BP,ioos:station:wmo:42374:1,2020-02-04T22:34:00Z,28.8662,-88.0563,1.5,20.8,11111222
BP,ioos:station:wmo:42374:1,2020-02-04T22:54:00Z,28.8662,-88.0563,1.3,20.8,11111222
BP,ioos:station:wmo:42374:1,2020-02-04T23:14:00Z,28.8662,-88.0563,1.7,20.8,11111222
BP,ioos:station:wmo:42374:1,2020-02-04T23:34:00Z,28.8662,-88.0563,1.4,20.9,11111222
BP,ioos:station:wmo:42374:1,2020-02-04T23:54:00Z,28.8662,-88.0563,1.6,20.9,11111222
BP,ioos:station:wmo:42374:1,2020-02-05T00:14:00Z,28.8662,-88.0563,1.7,20.9,11111222
BP,ioos:station:wmo:42374:1,2020-02-05T00:34:00Z,28.8662,-88.0563,1.7,20.9,11111222
BP,ioos:station:wmo:42374:1,2020-02-05T00:54:00Z,28.8662,-88.0563,1.6,20.9,11111222
BP,ioos:station:wmo:42374:1,2020-02-05T01:14:00Z,28.8662,-88.0563,1.8,20.9,11111222
BP,ioos:station:wmo:42374:1,2020-02-05T01:34:00Z,28.8662,-88.0563,1.7,20.9,11111222
BP,ioos:station:wmo:42374:1,2020-02-05T01:54:00Z,28.8662,-88.0563,1.7,20.9,11111222
BP,ioos:station:wmo:42374:1,2020-02-05T02:14:00Z,28.8662,-88.0563,1.7,20.8,11111222
BP,ioos:station:wmo:42374:1,2020-02-05T02:34:00Z,28.8662,-88.0563,1.6,20.8,11111222
BP,ioos:station:wmo:42374:1,2020-02-05T02:54:00Z,28.8662,-88.0563,1.5,20.8,11111222
BP,ioos:station:wmo:42374:1,2020-02-05T03:14:00Z,28.8662,-88.0563,1.4,20.8,11111222
BP,ioos:station:wmo:42374:1,2020-02-05T03:34:00Z,28.8662,-88.0563,1.4,20.8,11111222
BP,ioos:station:wmo:42374:1,2020-02-05T03:54:00Z,28.8662,-88.0563,1.4,20.8,11111222
BP,ioos:station:wmo:42374:1,2020-02-05T04:14:00Z,28.8662,-88.0563,1.4,20.8,11111222
BP,ioos:station:wmo:42374:1,2020-02-05T04:34:00Z,28.8662,-88.0563,1.4,20.8,11111222
BP,ioos:station:wmo:42374:1,2020-02-05T04:54:00Z,28.8662,-88.0563,1.4,20.8,11111222
BP,ioos:station:wmo:42374:1,2020-02-05T05:14:00Z,28.8662,-88.0563,1.4,20.8,11111222
BP,ioos:station:wmo:42374:1,2020-02-05T05:34:00Z,28.8662,-88.0563,1.6,20.8,11111222
BP,ioos:station:wmo:42374:1,2020-02-05T05:54:00Z,28.8662,-88.0563,1.4,20.9,11111222
BP,ioos:station:wmo:42374:1,2020-02-05T06:14:00Z,28.8662,-88.0563,1.4,20.9,11111222
BP,ioos:station:wmo:42374:1,2020-02-05T06:34:00Z,28.8662,-88.0563,1.5,20.9,11111222
BP,ioos:station:wmo:42374:1,2020-02-05T06:54:00Z,28.8662,-88.0563,1.4,20.9,11111222
BP,ioos:station:wmo:42374:1,2020-02-05T07:14:00Z,28.8662,-88.0563,1.5,20.9,11111222
BP,ioos:station:wmo:42374:1,2020-02-05T07:34:00Z,28.8662,-88.0563,1.4,20.9,11111222
BP,ioos:station:wmo:42374:1,2020-02-05T07:54:00Z,28.8662,-88.0563,1.6,20.8,11111222
BP,ioos:station:wmo:42374:1,2020-02-05T08:14:00Z,28.8662,-88.0563,1.4,20.9,11111222
BP,ioos:station:wmo:42374:1,2020-02-05T08:34:00Z,28.8662,-88.0563,1.7,20.9,11111222
BP,ioos:station:wmo:42374:1,2020-02-05T08:54:00Z,28.8662,-88.0563,1.6,20.9,11111222
BP,ioos:station:wmo:42374:1,2020-02-05T09:14:00Z,28.8662,-88.0563,1.6,20.9,11111222
BP,ioos:station:wmo:42374:1,2020-02-05T09:34:00Z,28.8662,-88.0563,1.5,20.9,11111222
BP,ioos:station:wmo:42374:1,2020-02-05T09:54:00Z,28.8662,-88.0563,1.5,21.0,11111222
BP,ioos:station:wmo:42374:1,2020-02-05T10:14:00Z,28.8662,-88.0563,1.6,21.0,11111222
BP,ioos:station:wmo:42374:1,2020-02-05T10:34:00Z,28.8662,-88.0563,1.5,21.0,11111222
BP,ioos:station:wmo:42374:1,2020-02-05T10:54:00Z,28.8662,-88.0563,1.5,21.0,11111222
BP,ioos:station:wmo:42374:1,2020-02-05T11:14:00Z,28.8662,-88.0563,1.5,21.0,11111222
BP,ioos:station:wmo:42374:1,2020-02-05T11:34:00Z,28.8662,-88.0563,1.6,21.0,11111222
BP,ioos:station:wmo:42374:1,2020-02-05T11:54:00Z,28.8662,-88.0563,1.8,21.0,11111222
BP,ioos:station:wmo:42374:1,2020-02-05T12:14:00Z,28.8662,-88.0563,1.7,21.0,11111222
BP,ioos:station:wmo:42374:1,2020-02-05T12:34:00Z,28.8662,-88.0563,1.6,21.1,11111222
BP,ioos:station:wmo:42374:1,2020-02-05T12:54:00Z,28.8662,-88.0563,1.6,21.1,11111222
BP,ioos:station:wmo:42374:1,2020-02-05T13:14:00Z,28.8662,-88.0563,1.6,21.1,11111222
BP,ioos:station:wmo:42374:1,2020-02-05T13:34:00Z,28.8662,-88.0563,1.7,21.1,11111222
BP,ioos:station:wmo:42374:1,2020-02-05T13:54:00Z,28.8662,-88.0563,1.9,21.1,11111222
BP,ioos:station:wmo:42374:1,2020-02-05T14:14:00Z,28.8662,-88.0563,1.8,21.1,11111222
BP,ioos:station:wmo:42374:1,2020-02-05T14:34:00Z,28.8662,-88.0563,1.8,21.0,11111222
BP,ioos:station:wmo:42374:1,2020-02-05T14:54:00Z,28.8662,-88.0563,1.5,21.0,11111222
BP,ioos:station:wmo:42374:1,2020-02-05T15:14:00Z,28.8662,-88.0563,1.8,21.0,11111222
BP,ioos:station:wmo:42374:1,2020-02-05T15:34:00Z,28.8662,-88.0563,1.8,21.1,11111222
BP,ioos:station:wmo:42374:1,2020-02-05T15:54:00Z,28.8662,-88.0563,1.7,21.1,11111222
BP,ioos:station:wmo:42374:1,2020-02-05T16:14:00Z,28.8662,-88.0563,1.8,21.0,11111222
BP,ioos:station:wmo:42374:1,2020-02-05T16:34:00Z,28.8662,-88.0563,1.7,20.9,11111222
BP,ioos:station:wmo:42374:1,2020-02-05T16:54:00Z,28.8662,-88.0563,1.6,20.9,11111222
BP,ioos:station:wmo:42374:1,2020-02-05T17:14:00Z,28.8662,-88.0563,1.8,20.9,11111222
BP,ioos:station:wmo:42374:1,2020-02-05T17:34:00Z,28.8662,-88.0563,1.6,20.9,11111222
BP,ioos:station:wmo:42374:1,2020-02-05T17:54:00Z,28.8662,-88.0563,1.4,20.9,11111222
BP,ioos:station:wmo:42374:1,2020-02-05T18:14:00Z,28.8662,-88.0563,1.5,20.8,11111222
BP,ioos:station:wmo:42374:1,2020-02-05T18:34:00Z,28.8662,-88.0563,1.7,20.8,11111222
BP,ioos:station:wmo:42374:1,2020-02-05T18:54:00Z,28.8662,-88.0563,1.5,20.8,11111222
BP,ioos:station:wmo:42374:1,2020-02-05T19:14:00Z,28.8662,-88.0563,1.6,20.7,11111222
BP,ioos:station:wmo:42374:1,2020-02-05T19:34:00Z,28.8662,-88.0563,1.7,20.7,11111222
BP,ioos:station:wmo:42374:1,2020-02-05T19:54:00Z,28.8662,-88.0563,1.5,20.7,11111222
BP,ioos:station:wmo:42374:1,2020-02-05T20:14:00Z,28.8662,-88.0563,1.6,20.8,11111222
BP,ioos:station:wmo:42374:1,2020-02-05T20:34:00Z,28.8662,-88.0563,1.7,20.8,11111222
BP,ioos:station:wmo:42374:1,2020-02-05T20:54:00Z,28.8662,-88.0563,1.6,20.8,11111222
BP,ioos:station:wmo:42374:1,2020-02-05T21:14:00Z,28.8662,-88.0563,1.5,20.8,11111222
BP,ioos:station:wmo:42374:1,2020-02-05T21:34:00Z,28.8662,-88.0563,1.4,20.8,11111222
BP,ioos:station:wmo:42374:1,2020-02-05T21:54:00Z,28.8662,-88.0563,1.5,20.7,11111222
BP,ioos:station:wmo:42374:1,2020-02-05T22:14:00Z,28.8662,-88.0563,1.6,20.7,11111222
BP,ioos:station:wmo:42374:1,2020-02-05T22:34:00Z,28.8662,-88.0563,1.6,20.7,11111222
BP,ioos:station:wmo:42374:1,2020-02-05T22:54:00Z,28.8662,-88.0563,1.7,20.8,11111222
BP,ioos:station:wmo:42374:1,2020-02-05T23:14:00Z,28.8662,-88.0563,1.5,20.9,11111222
BP,ioos:station:wmo:42374:1,2020-02-05T23:34:00Z,28.8662,-88.0563,1.6,20.9,11111222
BP,ioos:station:wmo:42374:1,2020-02-05T23:54:00Z,28.8662,-88.0563,1.8,20.9,11111222
BP,ioos:station:wmo:42374:1,2020-02-06T00:14:00Z,28.8662,-88.0563,1.5,20.8,11111222
BP,ioos:station:wmo:42374:1,2020-02-06T00:34:00Z,28.8662,-88.0563,1.4,20.6,11111222
BP,ioos:station:wmo:42374:1,2020-02-06T00:54:00Z,28.8662,-88.0563,1.8,20.6,11111222
BP,ioos:station:wmo:42374:1,2020-02-06T01:14:00Z,28.8662,-88.0563,1.6,20.7,11111222
BP,ioos:station:wmo:42374:1,2020-02-06T01:34:00Z,28.8662,-88.0563,1.5,20.8,11111222
BP,ioos:station:wmo:42374:1,2020-02-06T01:54:00Z,28.8662,-88.0563,1.4,20.9,11111222
BP,ioos:station:wmo:42374:1,2020-02-06T02:14:00Z,28.8662,-88.0563,1.7,20.9,11111222
BP,ioos:station:wmo:42374:1,2020-02-06T02:34:00Z,28.8662,-88.0563,1.6,21.0,11111222
BP,ioos:station:wmo:42374:1,2020-02-06T02:54:00Z,28.8662,-88.0563,1.7,21.1,11111222
BP,ioos:station:wmo:42374:1,2020-02-06T03:14:00Z,28.8662,-88.0563,1.5,20.9,11111222
BP,ioos:station:wmo:42374:1,2020-02-06T03:34:00Z,28.8662,-88.0563,1.4,20.9,11111222
BP,ioos:station:wmo:42374:1,2020-02-06T03:54:00Z,28.8662,-88.0563,1.4,20.8,11111222
BP,ioos:station:wmo:42374:1,2020-02-06T04:14:00Z,28.8662,-88.0563,1.8,20.6,11111222
BP,ioos:station:wmo:42374:1,2020-02-06T04:34:00Z,28.8662,-88.0563,1.6,20.6,11111222
BP,ioos:station:wmo:42374:1,2020-02-06T04:54:00Z,28.8662,-88.0563,1.5,20.8,11111222
BP,ioos:station:wmo:42374:1,2020-02-06T05:14:00Z,28.8662,-88.0563,1.5,20.7,11111222
BP,ioos:station:wmo:42374:1,2020-02-06T05:34:00Z,28.8662,-88.0563,1.5,20.7,11111222
BP,ioos:station:wmo:42374:1,2020-02-06T05:54:00Z,28.8662,-88.0563,1.2,20.8,11111222
BP,ioos:station:wmo:42374:1,2020-02-06T06:14:00Z,28.8662,-88.0563,1.3,20.8,11111222
BP,ioos:station:wmo:42374:1,2020-02-06T06:34:00Z,28.8662,-88.0563,1.4,20.7,11111222
BP,ioos:station:wmo:42374:1,2020-02-06T06:54:00Z,28.8662,-88.0563,1.4,20.7,11111222
BP,ioos:station:wmo:42374:1,2020-02-06T07:14:00Z,28.8662,-88.0563,1.5,20.9,11111222
BP,ioos:station:wmo:42374:1,2020-02-06T07:34:00Z,28.8662,-88.0563,1.4,20.8,11111222
BP,ioos:station:wmo:42374:1,2020-02-06T07:54:00Z,28.8662,-88.0563,1.3,20.7,11111222
BP,ioos:station:wmo:42374:1,2020-02-06T08:14:00Z,28.8662,-88.0563,1.4,20.7,11111222
BP,ioos:station:wmo:42374:1,2020-02-06T08:34:00Z,28.8662,-88.0563,1.4,20.7,11111222
BP,ioos:station:wmo:42374:1,2020-02-06T08:54:00Z,28.8662,-88.0563,1.3,20.8,11111222
BP,ioos:station:wmo:42374:1,2020-02-06T09:14:00Z,28.8662,-88.0563,1.2,20.7,11111222
BP,ioos:station:wmo:42374:1,2020-02-06T09:34:00Z,28.8662,-88.0563,1.4,20.6,11111222
BP,ioos:station:wmo:42374:1,2020-02-06T09:54:00Z,28.8662,-88.0563,1.5,20.7,11111222
BP,ioos:station:wmo:42374:1,2020-02-06T10:14:00Z,28.8662,-88.0563,1.3,20.9,11111222
BP,ioos:station:wmo:42374:1,2020-02-06T10:34:00Z,28.8662,-88.0563,1.3,20.9,11111222
BP,ioos:station:wmo:42374:1,2020-02-06T10:54:00Z,28.8662,-88.0563,1.5,20.9,11111222
BP,ioos:station:wmo:42374:1,2020-02-06T11:14:00Z,28.8662,-88.0563,1.3,20.8,11111222
BP,ioos:station:wmo:42374:1,2020-02-06T11:34:00Z,28.8662,-88.0563,1.5,20.9,11111222
BP,ioos:station:wmo:42374:1,2020-02-06T11:54:00Z,28.8662,-88.0563,1.4,20.9,11111222
BP,ioos:station:wmo:42374:1,2020-02-06T12:14:00Z,28.8662,-88.0563,1.4,20.9,11111222
BP,ioos:station:wmo:42374:1,2020-02-06T12:34:00Z,28.8662,-88.0563,1.6,20.9,11111222
BP,ioos:station:wmo:42374:1,2020-02-06T12:54:00Z,28.8662,-88.0563,1.4,20.9,11111222
BP,ioos:station:wmo:42374:1,2020-02-06T13:14:00Z,28.8662,-88.0563,1.4,20.9,11111222
BP,ioos:station:wmo:42374:1,2020-02-06T13:34:00Z,28.8662,-88.0563,1.3,20.9,11111222
BP,ioos:station:wmo:42374:1,2020-02-06T13:54:00Z,28.8662,-88.0563,1.3,20.8,11111222
BP,ioos:station:wmo:42374:1,2020-02-06T14:14:00Z,28.8662,-88.0563,1.5,20.7,11111222
BP,ioos:station:wmo:42374:1,2020-02-06T14:34:00Z,28.8662,-88.0563,1.8,20.6,11111222
BP,ioos:station:wmo:42374:1,2020-02-06T14:54:00Z,28.8662,-88.0563,1.6,20.6,11111222
BP,ioos:station:wmo:42374:1,2020-02-06T15:14:00Z,28.8662,-88.0563,1.7,20.6,11111222
BP,ioos:station:wmo:42374:1,2020-02-06T15:34:00Z,28.8662,-88.0563,1.4,20.7,11111222
BP,ioos:station:wmo:42374:1,2020-02-06T15:54:00Z,28.8662,-88.0563,1.3,20.7,11111222
BP,ioos:station:wmo:42374:1,2020-02-06T16:14:00Z,28.8662,-88.0563,1.5,20.7,11111222
BP,ioos:station:wmo:42374:1,2020-02-06T16:34:00Z,28.8662,-88.0563,1.3,20.8,11111222
BP,ioos:station:wmo:42374:1,2020-02-06T16:54:00Z,28.8662,-88.0563,1.4,20.8,11111222
BP,ioos:station:wmo:42374:1,2020-02-06T17:14:00Z,28.8662,-88.0563,1.6,20.8,11111222
BP,ioos:station:wmo:42374:1,2020-02-06T17:34:00Z,28.8662,-88.0563,1.6,20.8,11111222
BP,ioos:station:wmo:42374:1,2020-02-06T17:54:00Z,28.8662,-88.0563,1.6,20.9,11111222
BP,ioos:station:wmo:42374:1,2020-02-06T18:14:00Z,28.8662,-88.0563,1.5,20.9,11111222
BP,ioos:station:wmo:42374:1,2020-02-06T18:34:00Z,28.8662,-88.0563,1.7,20.9,11111222
BP,ioos:station:wmo:42374:1,2020-02-06T18:54:00Z,28.8662,-88.0563,1.5,20.9,11111222
BP,ioos:station:wmo:42374:1,2020-02-06T19:14:00Z,28.8662,-88.0563,1.7,20.9,11111222
BP,ioos:station:wmo:42374:1,2020-02-06T19:34:00Z,28.8662,-88.0563,1.6,21.0,11111222
BP,ioos:station:wmo:42374:1,2020-02-06T19:54:00Z,28.8662,-88.0563,1.6,21.0,11111222
BP,ioos:station:wmo:42374:1,2020-02-06T20:14:00Z,28.8662,-88.0563,1.7,21.0,11111222
BP,ioos:station:wmo:42374:1,2020-02-06T20:34:00Z,28.8662,-88.0563,1.7,21.0,11111222
BP,ioos:station:wmo:42374:1,2020-02-06T20:54:00Z,28.8662,-88.0563,1.7,21.0,11111222
BP,ioos:station:wmo:42374:1,2020-02-06T21:14:00Z,28.8662,-88.0563,1.6,21.0,11111222
BP,ioos:station:wmo:42374:1,2020-02-06T21:34:00Z,28.8662,-88.0563,1.7,21.0,11111222
BP,ioos:station:wmo:42374:1,2020-02-06T21:54:00Z,28.8662,-88.0563,1.8,21.0,11111222
BP,ioos:station:wmo:42374:1,2020-02-06T22:14:00Z,28.8662,-88.0563,1.8,21.0,11111222
BP,ioos:station:wmo:42374:1,2020-02-06T22:34:00Z,28.8662,-88.0563,1.8,21.0,11111222
BP,ioos:station:wmo:42374:1,2020-02-06T22:54:00Z,28.8662,-88.0563,1.6,21.0,11111222
BP,ioos:station:wmo:42374:1,2020-02-06T23:14:00Z,28.8662,-88.0563,1.6,21.0,11111222
BP,ioos:station:wmo:42374:1,2020-02-06T23:34:00Z,28.8662,-88.0563,1.8,21.0,11111222
BP,ioos:station:wmo:42374:1,2020-02-06T23:54:00Z,28.8662,-88.0563,1.7,21.0,11111222
BP,ioos:station:wmo:42374:1,2020-02-07T00:14:00Z,28.8662,-88.0563,1.7,21.0,11111222
BP,ioos:station:wmo:42374:1,2020-02-07T00:34:00Z,28.8662,-88.0563,1.6,21.0,11111222
BP,ioos:station:wmo:42374:1,2020-02-07T00:54:00Z,28.8662,-88.0563,1.9,21.0,11111222
BP,ioos:station:wmo:42374:1,2020-02-07T01:14:00Z,28.8662,-88.0563,1.7,21.0,11111222
BP,ioos:station:wmo:42374:1,2020-02-07T01:34:00Z,28.8662,-88.0563,1.7,20.9,11111222
BP,ioos:station:wmo:42374:1,2020-02-07T01:54:00Z,28.8662,-88.0563,1.5,20.8,11111222
BP,ioos:station:wmo:42374:1,2020-02-07T02:14:00Z,28.8662,-88.0563,1.5,20.8,11111222
BP,ioos:station:wmo:42374:1,2020-02-07T02:34:00Z,28.8662,-88.0563,1.5,20.8,11111222
BP,ioos:station:wmo:42374:1,2020-02-07T03:18:00Z,28.8662,-88.0563,1.5,20.8,11111222
BP,ioos:station:wmo:42374:1,2020-02-07T03:38:00Z,28.8662,-88.0563,1.6,20.8,11111222
BP,ioos:station:wmo:42374:1,2020-02-07T03:58:00Z,28.8662,-88.0563,1.5,20.8,11111222
BP,ioos:station:wmo:42374:1,2020-02-07T04:18:00Z,28.8662,-88.0563,1.5,20.9,11111222
BP,ioos:station:wmo:42374:1,2020-02-07T04:38:00Z,28.8662,-88.0563,1.6,20.9,11111222
BP,ioos:station:wmo:42374:1,2020-02-07T04:58:00Z,28.8662,-88.0563,1.5,20.9,11111222
BP,ioos:station:wmo:42374:1,2020-02-07T05:18:00Z,28.8662,-88.0563,1.8,21.0,11111222
BP,ioos:station:wmo:42374:1,2020-02-07T05:38:00Z,28.8662,-88.0563,1.5,20.9,11111222
BP,ioos:station:wmo:42374:1,2020-02-07T05:58:00Z,28.8662,-88.0563,1.5,20.9,11111222
BP,ioos:station:wmo:42374:1,2020-02-07T06:18:00Z,28.8662,-88.0563,1.5,20.9,11111222
BP,ioos:station:wmo:42374:1,2020-02-07T06:38:00Z,28.8662,-88.0563,1.6,20.9,11111222
BP,ioos:station:wmo:42374:1,2020-02-07T06:58:00Z,28.8662,-88.0563,1.6,20.9,11111222
BP,ioos:station:wmo:42374:1,2020-02-07T07:18:00Z,28.8662,-88.0563,1.7,20.9,11111222
BP,ioos:station:wmo:42374:1,2020-02-07T07:38:00Z,28.8662,-88.0563,1.6,20.9,11111222
BP,ioos:station:wmo:42374:1,2020-02-07T07:58:00Z,28.8662,-88.0563,1.7,20.9,11111222
BP,ioos:station:wmo:42374:1,2020-02-07T08:18:00Z,28.8662,-88.0563,1.5,20.9,11111222
BP,ioos:station:wmo:42374:1,2020-02-07T08:38:00Z,28.8662,-88.0563,1.4,20.9,11111222
BP,ioos:station:wmo:42374:1,2020-02-07T08:58:00Z,28.8662,-88.0563,1.5,20.9,11111222
BP,ioos:station:wmo:42374:1,2020-02-07T09:18:00Z,28.8662,-88.0563,1.6,20.9,11111222
BP,ioos:station:wmo:42374:1,2020-02-07T09:38:00Z,28.8662,-88.0563,1.5,20.9,11111222
BP,ioos:station:wmo:42374:1,2020-02-07T09:58:00Z,28.8662,-88.0563,1.5,20.9,11111222
BP,ioos:station:wmo:42374:1,2020-02-07T10:18:00Z,28.8662,-88.0563,1.5,21.0,11111222
BP,ioos:station:wmo:42374:1,2020-02-07T10:38:00Z,28.8662,-88.0563,1.5,20.9,11111222
BP,ioos:station:wmo:42374:1,2020-02-07T10:58:00Z,28.8662,-88.0563,1.8,20.8,11111222
BP,ioos:station:wmo:42374:1,2020-02-07T11:18:00Z,28.8662,-88.0563,1.6,20.8,11111222
BP,ioos:station:wmo:42374:1,2020-02-07T11:38:00Z,28.8662,-88.0563,1.6,20.8,11111222
BP,ioos:station:wmo:42374:1,2020-02-07T11:58:00Z,28.8662,-88.0563,1.6,20.8,11111222
BP,ioos:station:wmo:42374:1,2020-02-07T12:18:00Z,28.8662,-88.0563,1.8,20.8,11111222
BP,ioos:station:wmo:42374:1,2020-02-07T12:38:00Z,28.8662,-88.0563,1.6,20.8,11111222
BP,ioos:station:wmo:42374:1,2020-02-07T12:58:00Z,28.8662,-88.0563,1.4,20.8,11111222
BP,ioos:station:wmo:42374:1,2020-02-07T13:18:00Z,28.8662,-88.0563,1.6,20.8,11111222
BP,ioos:station:wmo:42374:1,2020-02-07T13:38:00Z,28.8662,-88.0563,1.4,20.7,11111222
BP,ioos:station:wmo:42374:1,2020-02-07T13:58:00Z,28.8662,-88.0563,1.7,20.7,11111222
BP,ioos:station:wmo:42374:1,2020-02-07T14:18:00Z,28.8662,-88.0563,1.5,20.7,11111222